EW5179 Weather Reports


time (UTC)temp
C
wind
direction
speed
KPH
gust
KPH
rain 1hr
cm
rain 24hr
cm
rain mn
cm
humidity
%
barometer
mb
20260906110034 -17 0.0 0.0 0.00 0.03 0.00 1028.7
20260906104532 21 1 3.2 9.7 0.00 0.03 0.00 89 1028.7
20260906103010 21 13 4.8 11.3 0.00 0.03 0.00 90 1028.6
20260906101507 21 4 3.2 12.9 0.00 0.03 0.00 92 1028.5
20260906100048 21 21 6.4 16.1 0.00 0.03 0.00 95 1028.5
20260906094547 21 36 3.2 14.5 0.00 0.03 0.00 97 1028.3
20260906093025 22 21 6.4 12.9 0.00 0.03 0.00 97 1028.2
20260906091532 22 41 6.4 11.3 0.00 0.03 0.00 98 1028.4
20260906090006 21 29 4.8 11.3 0.00 0.03 0.00 98 1028.3
20260906084502 21 34 6.4 12.9 0.00 0.03 0.00 98 1028.2
20260906083049 21 2 6.4 0.0 0.00 0.00 0.00 98 1027.9
20260906081551 21 32 4.8 9.7 0.00 0.03 0.03 98 1027.9
20260906080046 21 42 4.8 11.3 0.00 0.03 0.03 98 1027.8
20260906074604 21 23 3.2 8.0 0.00 0.03 0.03 98 1027.6
20260906073044 21 324 3.2 8.0 0.00 0.03 0.03 98 1027.8
20260906071544 21 1 4.8 9.7 0.00 0.03 0.03 98 1027.8
20260906070043 21 34 3.2 8.0 0.00 0.03 0.03 98 1027.7
20260906064544 21 36 3.2 6.4 0.00 0.03 0.03 98 1027.7
20260906063025 21 30 3.2 6.4 0.00 0.03 0.03 97 1027.9
20260906061521 21 27 1.6 6.4 0.00 0.03 0.03 97 1027.9
20260906060016 22 38 3.2 8.0 0.00 0.03 0.03 97 1027.9
20260906054507 22 32 4.8 8.0 0.00 0.03 0.03 96 1027.7
20260906053008 22 9 4.8 8.0 0.00 0.03 0.03 95 1027.6
20260906051505 22 27 4.8 9.7 0.00 0.03 0.03 95 1027.6
20260906050008 22 21 3.2 9.7 0.00 0.03 0.03 95 1027.5
20260906044502 22 9 4.8 9.7 0.00 0.03 0.03 95 1027.4
20260906043059 22 355 4.8 8.0 0.00 0.03 0.03 94 1027.5
20260906041559 23 26 4.8 11.3 0.00 0.03 0.03 93 1027.3
20260906040045 23 31 4.8 12.9 0.00 0.03 0.03 92 1027.3
20260906034540 23 37 8.0 16.1 0.00 0.03 0.03 92 1027.2
20260906033035 24 21 6.4 20.9 0.00 0.03 0.03 90 1027.1
20260906031521 24 27 6.4 14.5 0.00 0.03 0.03 89 1027.2
20260906030003 25 47 9.7 17.7 0.00 0.03 0.03 87 1027.1
20260906024602 25 30 9.7 16.1 0.00 0.03 0.03 86 1026.9
20260906023043 26 16 6.4 19.3 0.00 0.03 0.03 85 1026.8
20260906021544 26 27 9.7 16.1 0.00 0.03 0.03 85 1026.5
20260906020024 27 34 8.0 14.5 0.00 0.03 0.03 84 1026.3
20260906014523 27 31 8.0 14.5 0.00 0.03 0.03 82 1026.1
20260906013011 27 51 9.7 20.9 0.00 0.03 0.03 81 1025.9
20260906011508 28 8 4.8 17.7 0.00 0.05 0.03 81 1025.8
20260906010046 28 37 8.0 16.1 0.00 0.05 0.03 79 1025.5
20260906004545 28 11 9.7 19.3 0.00 0.05 0.03 80 1025.2
20260906003027 29 49 12.9 20.9 0.00 0.05 0.03 80 1025.2
20260906001526 30 20 8.0 19.3 0.00 0.05 0.03 80 1025.0
20260906000025 31 360 8.0 12.9 0.00 0.05 0.03 77 1024.8
20260905234525 32 333 6.4 12.9 0.00 0.05 0.03 74 1024.7
20260905233024 32 333 9.7 16.1 0.00 0.05 0.03 73 1024.5
20260905231524 33 323 8.0 14.5 0.00 0.05 0.03 71 1024.5
20260905230024 33 335 4.8 14.5 0.00 0.05 0.03 69 1024.4
20260905224531 35 356 8.0 12.9 0.00 0.05 0.03 66 1024.3
20260905223006 35 22 3.2 9.7 0.00 0.05 0.03 66 1024.3
20260905221502 35 15 4.8 16.1 0.00 0.05 0.03 64 1024.2
20260905214547 36 13 6.4 11.3 0.00 0.05 0.03 62 1024.3
20260905213050 36 4 4.8 9.7 0.00 0.05 0.03 62 1024.3
20260905211557 35 14 4.8 17.7 0.00 0.05 0.03 62 1024.3
20260905210048 36 8 6.4 12.9 0.00 0.05 0.03 62 1024.3
20260905204547 35 32 3.2 8.0 0.00 0.05 0.03 66 1024.5
20260905203053 36 21 6.4 9.7 0.00 0.05 0.03 63 1024.7
20260905201543 35 30 1.6 8.0 0.00 0.05 0.03 66 1024.7
20260905200025 36 337 4.8 11.3 0.00 0.05 0.03 62 1025.0
20260905194527 36 342 6.4 14.5 0.00 0.05 0.03 58 1025.1
20260905193023 35 13 6.4 12.9 0.00 0.05 0.03 58 1025.0
20260905191521 36 349 4.8 20.9 0.00 0.05 0.03 62 1025.2
20260905190018 36 340 4.8 12.9 0.00 0.05 0.03 59 1025.2
20260905184515 36 10 12.9 20.9 0.00 0.05 0.03 58 1025.4
20260905183012 34 213 3.2 12.9 0.03 0.05 0.03 65 1025.6
20260905181511 35 256 3.2 12.9 0.03 0.05 0.03 66 1025.9
20260905180100 35 236 0.0 12.9 0.03 0.05 0.03 65 1026.0
20260905174555 35 352 0.0 9.7 0.03 0.05 0.03 66 1026.2
20260905173050 34 108 1.6 6.4 0.00 0.03 0.00 70 1026.4
20260905171547 33 262 3.2 11.3 0.00 0.03 0.00 69 1026.3
20260905170043 32 199 0.0 14.5 0.00 0.03 0.00 71 1026.5
20260905164540 32 219 4.8 16.1 0.00 0.03 0.00 73 1026.7
20260905163037 32 212 8.0 17.7 0.00 0.03 0.00 74 1026.6
20260905161535 31 176 4.8 17.7 0.00 0.03 0.00 76 1026.8
20260905160019 31 231 8.0 16.1 0.00 0.03 0.00 76 1026.9
20260905154513 31 202 4.8 14.5 0.00 0.03 0.00 78 1027.0
20260905153111 30 154 6.4 19.3 0.00 0.03 0.00 80 1027.0
20260905151557 30 130 6.4 17.7 0.00 0.03 0.00 80 1027.0
20260905150050 30 137 8.0 14.5 0.00 0.03 0.00 81 1027.4
20260905144529 29 167 9.7 16.1 0.00 0.03 0.00 82 1027.3
20260905143027 28 185 8.0 14.5 0.00 0.03 0.00 85 1027.2
20260905141510 27 115 4.8 16.1 0.00 0.03 0.00 88 1027.2
20260905140006 28 87 3.2 6.4 0.00 0.03 0.00 87 1027.1
20260905134556 28 109 3.2 6.4 0.00 0.03 0.00 86 1026.9
20260905133051 27 232 3.2 6.4 0.00 0.03 0.00 87 1026.9
20260905131546 26 91 0.0 4.8 0.00 0.03 0.00 91 1026.9
20260905130042 26 57 1.6 4.8 0.00 0.03 0.00 91 1027.0
20260905124542 25 20 0.0 3.2 0.00 0.03 0.00 94 1027.0
20260905123037 25 20 0.0 1.6 0.00 0.03 0.00 95 1026.9
20260905121531 -17 0.0 0.0 0.00 0.03 0.00 1026.7
20260905120026 -17 0.0 0.0 0.00 0.03 0.00 1026.8
20260905114510 -17 0.0 0.0 0.00 0.03 0.00 1026.7
20260905113001 -17 0.0 0.0 0.00 0.03 0.00 1026.7
20260905111538 -17 0.0 0.0 0.00 0.03 0.00 1026.6